Mountain Fork River (Oklahoma), Eagleville (07339000)

StateOklahomaLatestPoor (174 cfs)
RiverMountain Fork RiverRatingObservedEstimated
Updated2026-05-10 6:30 (1 hour ago)Flood - The river is flooding. Obstacles can be treacherous or deadly. The river should be avoided at this stage for casual trips and definitely for the inexperienced. Trips should be attempted only with protective gear and equipment.Flood(none)6184
Discharge174 cfs (median: 1370 cfs)High - The river is high and potentially dangerous, especially for the young and / or inexperienced. Normal stream obstacles are sometimes difficult to navigate. Extended distances can be attempted, but canoe travel may not be advisable.High(none)1052
Height0.88 feetGood - Conditions are ideal for a canoe or kayak. Boats typically will drag on fewer than one-quarter of riffles, if at all, and portages are unnecessary or rare. Normal float lengths can be attempted without a problem.Good(none)754
TrendSteady (falling over 24 hours)Low - River is low but can still be floated. Some riffles are okay but most come with significant dragging and might need a portage. Float lengths should be reduced to accommodate low flow, dragging, and portages.Low(none)708
USGSExternal icon USGS Site (External icon Duck Duck Go Maps)Poor - River is too low to float comfortably. Most or all riffles will drag or must be portaged and some obstacles (such as slick shelf rock) cause undue problems. Avoid the river at this stage for casual paddling trips.Poor(none)198

Trending Data

Plot Image

Trips for Mountain Fork River (Oklahoma), Eagleville (07339000)

DateStartEndDistanceConditionDischargeHeightFishingDetails
Click for details2003-07-06 Rereg Dam US 70 Total trip distance: 3.2 miles3.2 Good 363 None NoneNone Fillmore, Brian
Wann, Denny
Fillmore, Brian; Wann, Denny
No notes for this trip<i>No notes for this trip</i> USGS Gauge Data:
Eagleville (07339000)
Discharge: 363
Height:
<b>USGS Gauge Data:</b></br />Eagleville (07339000)<br />Discharge: 363<br />Height:
Source: FillmoreSource: Fillmore

A total of 1 rows are displayed.

Trip Summary for Mountain Fork River (Oklahoma), Eagleville (07339000)

Miles3.2
Trips1
People2
Dates1
Years1
Months1
Rows1
Sources1

Condition Descriptions

Fishing Conditions

Fish Species

Notes

Classic Trip List

The classic River Trips application is still available for use. It is updated with the new system using a data retrofit. It is no longer maintained. The original River Trips application is no longer updated (as of 1 Dec 2016) but can be checked for errors or for the condition of the data before it was converted to the new system.

Gauge Data Table

ObservationHeightDischargeMaximum
Discharge
Minimum
Discharge
Mean
Discharge
P05P10P20P25P50
(Median)
P75P80P90P95
2026-05-10 06:30 0.88 174 9020 (1991) 132 (2017) 2390 162 195 338 532 1370 3300 5040 6840 7560
2026-05-10 05:30 0.88 174 9020 (1991) 132 (2017) 2390 162 195 338 532 1370 3300 5040 6840 7560
2026-05-10 04:30 0.87 171 9020 (1991) 132 (2017) 2390 162 195 338 532 1370 3300 5040 6840 7560
2026-05-10 03:30 0.87 171 9020 (1991) 132 (2017) 2390 162 195 338 532 1370 3300 5040 6840 7560
2026-05-10 02:30 0.87 171 9020 (1991) 132 (2017) 2390 162 195 338 532 1370 3300 5040 6840 7560
2026-05-10 01:30 0.88 174 9020 (1991) 132 (2017) 2390 162 195 338 532 1370 3300 5040 6840 7560
2026-05-10 00:30 0.88 174 9020 (1991) 132 (2017) 2390 162 195 338 532 1370 3300 5040 6840 7560
2026-05-09 23:30 0.88 174 9020 (1991) 132 (2017) 2390 162 195 338 532 1370 3300 5040 6840 7560
2026-05-09 22:30 0.88 174 8490 (1991) 118 (2017) 2220 148 179 385 438 1370 3330 3940 6240 7550
2026-05-09 21:30 0.88 174 8490 (1991) 118 (2017) 2220 148 179 385 438 1370 3330 3940 6240 7550
2026-05-09 20:30 0.88 174 8490 (1991) 118 (2017) 2220 148 179 385 438 1370 3330 3940 6240 7550
2026-05-09 19:30 0.89 177 8490 (1991) 118 (2017) 2220 148 179 385 438 1370 3330 3940 6240 7550
2026-05-09 18:30 0.90 180 8490 (1991) 118 (2017) 2220 148 179 385 438 1370 3330 3940 6240 7550
2026-05-09 17:30 0.91 182 8490 (1991) 118 (2017) 2220 148 179 385 438 1370 3330 3940 6240 7550
2026-05-09 16:30 0.91 182 8490 (1991) 118 (2017) 2220 148 179 385 438 1370 3330 3940 6240 7550
2026-05-09 15:30 0.92 185 8490 (1991) 118 (2017) 2220 148 179 385 438 1370 3330 3940 6240 7550
2026-05-09 14:30 0.94 191 8490 (1991) 118 (2017) 2220 148 179 385 438 1370 3330 3940 6240 7550
2026-05-09 13:30 0.95 193 8490 (1991) 118 (2017) 2220 148 179 385 438 1370 3330 3940 6240 7550
2026-05-09 12:30 0.96 195 8490 (1991) 118 (2017) 2220 148 179 385 438 1370 3330 3940 6240 7550
2026-05-09 11:30 0.97 197 8490 (1991) 118 (2017) 2220 148 179 385 438 1370 3330 3940 6240 7550
2026-05-09 10:30 0.97 197 8490 (1991) 118 (2017) 2220 148 179 385 438 1370 3330 3940 6240 7550
2026-05-09 09:30 0.99 202 8490 (1991) 118 (2017) 2220 148 179 385 438 1370 3330 3940 6240 7550
2026-05-09 08:30 0.99 202 8490 (1991) 118 (2017) 2220 148 179 385 438 1370 3330 3940 6240 7550
2026-05-09 07:30 1.01 207 8490 (1991) 118 (2017) 2220 148 179 385 438 1370 3330 3940 6240 7550
2026-05-09 06:30 1.01 207 8490 (1991) 118 (2017) 2220 148 179 385 438 1370 3330 3940 6240 7550
2026-05-09 05:30 1.02 210 8490 (1991) 118 (2017) 2220 148 179 385 438 1370 3330 3940 6240 7550
2026-05-09 04:30 1.03 213 8490 (1991) 118 (2017) 2220 148 179 385 438 1370 3330 3940 6240 7550
2026-05-09 03:30 1.04 215 8490 (1991) 118 (2017) 2220 148 179 385 438 1370 3330 3940 6240 7550
2026-05-09 02:30 1.06 221 8490 (1991) 118 (2017) 2220 148 179 385 438 1370 3330 3940 6240 7550
2026-05-09 01:30 1.07 224 8490 (1991) 118 (2017) 2220 148 179 385 438 1370 3330 3940 6240 7550
2026-05-09 00:30 1.09 229 8490 (1991) 118 (2017) 2220 148 179 385 438 1370 3330 3940 6240 7550
2026-05-08 23:30 1.10 232 8490 (1991) 118 (2017) 2220 148 179 385 438 1370 3330 3940 6240 7550
2026-05-08 22:30 1.12 238 7580 (1984) 129 (2017) 2090 150 192 415 483 1520 3080 3390 5970 6950
2026-05-08 21:30 1.14 244 7580 (1984) 129 (2017) 2090 150 192 415 483 1520 3080 3390 5970 6950
2026-05-08 20:30 1.16 250 7580 (1984) 129 (2017) 2090 150 192 415 483 1520 3080 3390 5970 6950
2026-05-08 19:30 1.19 259 7580 (1984) 129 (2017) 2090 150 192 415 483 1520 3080 3390 5970 6950
2026-05-08 18:30 1.22 268 7580 (1984) 129 (2017) 2090 150 192 415 483 1520 3080 3390 5970 6950
2026-05-08 17:30 1.24 275 7580 (1984) 129 (2017) 2090 150 192 415 483 1520 3080 3390 5970 6950
2026-05-08 16:30 1.29 290 7580 (1984) 129 (2017) 2090 150 192 415 483 1520 3080 3390 5970 6950
2026-05-08 15:30 1.32 300 7580 (1984) 129 (2017) 2090 150 192 415 483 1520 3080 3390 5970 6950
2026-05-08 14:30 1.36 313 7580 (1984) 129 (2017) 2090 150 192 415 483 1520 3080 3390 5970 6950
2026-05-08 13:30 1.41 331 7580 (1984) 129 (2017) 2090 150 192 415 483 1520 3080 3390 5970 6950
2026-05-08 12:30 1.43 338 7580 (1984) 129 (2017) 2090 150 192 415 483 1520 3080 3390 5970 6950
2026-05-08 11:30 1.48 356 7580 (1984) 129 (2017) 2090 150 192 415 483 1520 3080 3390 5970 6950
2026-05-08 10:30 1.54 378 7580 (1984) 129 (2017) 2090 150 192 415 483 1520 3080 3390 5970 6950
2026-05-08 09:30 1.61 405 7580 (1984) 129 (2017) 2090 150 192 415 483 1520 3080 3390 5970 6950
2026-05-08 08:30 1.66 425 7580 (1984) 129 (2017) 2090 150 192 415 483 1520 3080 3390 5970 6950
2026-05-08 07:30 1.73 454 7580 (1984) 129 (2017) 2090 150 192 415 483 1520 3080 3390 5970 6950
2026-05-08 06:30 1.81 490 7580 (1984) 129 (2017) 2090 150 192 415 483 1520 3080 3390 5970 6950
2026-05-08 05:30 1.88 522 7580 (1984) 129 (2017) 2090 150 192 415 483 1520 3080 3390 5970 6950
2026-05-08 04:30 1.97 567 7580 (1984) 129 (2017) 2090 150 192 415 483 1520 3080 3390 5970 6950
2026-05-08 03:30 2.07 621 7580 (1984) 129 (2017) 2090 150 192 415 483 1520 3080 3390 5970 6950
2026-05-08 02:30 2.16 674 7580 (1984) 129 (2017) 2090 150 192 415 483 1520 3080 3390 5970 6950
2026-05-08 01:30 2.27 745 7580 (1984) 129 (2017) 2090 150 192 415 483 1520 3080 3390 5970 6950
2026-05-08 00:30 2.35 800 7580 (1984) 129 (2017) 2090 150 192 415 483 1520 3080 3390 5970 6950
2026-05-07 23:30 2.37 814 7580 (1984) 129 (2017) 2090 150 192 415 483 1520 3080 3390 5970 6950
2026-05-07 22:30 2.22 712 7070 (2015) 140 (2006) 2180 156 186 263 345 1340 3530 4320 5890 6530
2026-05-07 21:30 1.82 494 7070 (2015) 140 (2006) 2180 156 186 263 345 1340 3530 4320 5890 6530
2026-05-07 20:30 1.43 338 7070 (2015) 140 (2006) 2180 156 186 263 345 1340 3530 4320 5890 6530
2026-05-07 19:30 1.43 338 7070 (2015) 140 (2006) 2180 156 186 263 345 1340 3530 4320 5890 6530
2026-05-07 18:30 1.48 356 7070 (2015) 140 (2006) 2180 156 186 263 345 1340 3530 4320 5890 6530
2026-05-07 17:30 1.54 378 7070 (2015) 140 (2006) 2180 156 186 263 345 1340 3530 4320 5890 6530
2026-05-07 16:30 1.59 397 7070 (2015) 140 (2006) 2180 156 186 263 345 1340 3530 4320 5890 6530
2026-05-07 15:30 1.66 425 7070 (2015) 140 (2006) 2180 156 186 263 345 1340 3530 4320 5890 6530
2026-05-07 14:30 1.75 463 7070 (2015) 140 (2006) 2180 156 186 263 345 1340 3530 4320 5890 6530
2026-05-07 13:30 1.81 490 7070 (2015) 140 (2006) 2180 156 186 263 345 1340 3530 4320 5890 6530
2026-05-07 12:30 1.90 532 7070 (2015) 140 (2006) 2180 156 186 263 345 1340 3530 4320 5890 6530
2026-05-07 11:30 2.00 582 7070 (2015) 140 (2006) 2180 156 186 263 345 1340 3530 4320 5890 6530
2026-05-07 10:30 2.11 644 7070 (2015) 140 (2006) 2180 156 186 263 345 1340 3530 4320 5890 6530
2026-05-07 09:30 2.21 705 7070 (2015) 140 (2006) 2180 156 186 263 345 1340 3530 4320 5890 6530
2026-05-07 08:30 2.33 786 7070 (2015) 140 (2006) 2180 156 186 263 345 1340 3530 4320 5890 6530
2026-05-07 07:30 2.46 880 7070 (2015) 140 (2006) 2180 156 186 263 345 1340 3530 4320 5890 6530
2026-05-07 06:30 2.62 1010 7070 (2015) 140 (2006) 2180 156 186 263 345 1340 3530 4320 5890 6530
2026-05-07 05:30 2.78 1140 7070 (2015) 140 (2006) 2180 156 186 263 345 1340 3530 4320 5890 6530
2026-05-07 04:30 2.95 1290 7070 (2015) 140 (2006) 2180 156 186 263 345 1340 3530 4320 5890 6530
2026-05-07 03:30 3.14 1470 7070 (2015) 140 (2006) 2180 156 186 263 345 1340 3530 4320 5890 6530
2026-05-07 02:30 3.33 1660 7070 (2015) 140 (2006) 2180 156 186 263 345 1340 3530 4320 5890 6530
2026-05-07 01:30 3.52 1860 7070 (2015) 140 (2006) 2180 156 186 263 345 1340 3530 4320 5890 6530
2026-05-07 00:30 3.66 2010 7070 (2015) 140 (2006) 2180 156 186 263 345 1340 3530 4320 5890 6530
2026-05-06 23:30 3.51 1850 7070 (2015) 140 (2006) 2180 156 186 263 345 1340 3530 4320 5890 6530

A total of 80 rows are displayed for years 1970 through 2025.